Time,TemperatureF,DewpointF,PressureIn,WindDirection,WindDirectionDegrees,WindSpeedMPH,WindSpeedGustMPH,Humidity,HourlyPrecipIn,Conditions,Clouds,dailyrainin,SoftwareType,DateUTC
2013-03-13 00:00:00,30.4,17.7,30.20,East,81,0.0,0.0,59,0.00,,,0.00,WeatherDisplay:10.36,2013-03-13 05:00:00,
2013-03-13 00:06:00,30.2,17.6,30.20,ENE,65,0.0,0.0,59,0.00,,,0.00,WeatherDisplay:10.36,2013-03-13 05:06:00,
2013-03-13 00:11:00,30.0,17.0,30.20,ENE,67,0.0,0.0,58,0.00,,,0.00,WeatherDisplay:10.36,2013-03-13 05:11:00,
2013-03-13 00:16:00,30.0,17.0,30.20,East,84,0.0,0.0,58,0.00,,,0.00,WeatherDisplay:10.36,2013-03-13 05:16:00,
2013-03-13 00:21:00,30.0,17.0,30.20,ENE,77,0.0,0.0,58,0.00,,,0.00,WeatherDisplay:10.36,2013-03-13 05:21:00,
2013-03-13 00:26:00,30.0,17.0,30.20,ENE,75,0.0,0.0,58,0.00,,,0.00,WeatherDisplay:10.36,2013-03-13 05:26:00,
2013-03-13 00:32:00,30.0,16.6,30.20,NE,55,0.0,0.0,57,0.00,,,0.00,WeatherDisplay:10.36,2013-03-13 05:32:00,
2013-03-13 00:37:00,29.8,16.4,30.20,East,85,0.0,0.0,57,0.00,,,0.00,WeatherDisplay:10.36,2013-03-13 05:37:00,
2013-03-13 00:42:00,29.8,16.4,30.20,SE,127,0.0,0.0,57,0.00,,,0.00,WeatherDisplay:10.36,2013-03-13 05:42:00,
2013-03-13 00:47:00,29.7,15.9,30.20,ESE,108,0.0,0.0,56,0.00,,,0.00,WeatherDisplay:10.36,2013-03-13 05:47:00,
2013-03-13 00:52:00,29.7,15.9,30.20,SSW,198,0.0,0.0,56,0.00,,,0.00,WeatherDisplay:10.36,2013-03-13 05:52:00,
2013-03-13 00:57:00,29.7,15.9,30.20,ESE,109,0.0,0.0,56,0.00,,,0.00,WeatherDisplay:10.36,2013-03-13 05:57:00,
2013-03-13 01:02:00,29.7,15.9,30.20,NE,51,0.0,0.0,56,0.00,,,0.00,WeatherDisplay:10.36,2013-03-13 06:02:00,
2013-03-13 01:07:00,29.7,15.5,30.20,ENE,67,0.0,0.0,55,0.00,,,0.00,WeatherDisplay:10.36,2013-03-13 06:07:00,
2013-03-13 01:12:00,29.7,15.0,30.20,NE,56,0.0,0.0,54,0.00,,,0.00,WeatherDisplay:10.36,2013-03-13 06:12:00,
2013-03-13 01:17:00,29.3,14.3,30.20,ESE,122,0.0,0.0,53,0.00,,,0.00,WeatherDisplay:10.36,2013-03-13 06:17:00,
2013-03-13 01:23:00,29.1,14.1,30.20,East,92,0.0,0.0,53,0.00,,,0.00,WeatherDisplay:10.36,2013-03-13 06:23:00,
2013-03-13 01:28:00,28.9,13.9,30.20,ESE,118,0.0,0.0,53,0.00,,,0.00,WeatherDisplay:10.36,2013-03-13 06:28:00,
2013-03-13 01:33:00,28.9,13.9,30.20,ENE,64,0.0,0.0,53,0.00,,,0.00,WeatherDisplay:10.36,2013-03-13 06:33:00,
2013-03-13 01:38:00,28.8,13.3,30.20,SSW,194,0.0,0.0,52,0.00,,,0.00,WeatherDisplay:10.36,2013-03-13 06:38:00,
2013-03-13 01:43:00,28.8,13.3,30.20,ENE,58,0.0,0.0,52,0.00,,,0.00,WeatherDisplay:10.36,2013-03-13 06:43:00,
2013-03-13 01:48:00,28.6,12.7,30.20,ENE,62,0.0,0.0,51,0.00,,,0.00,WeatherDisplay:10.36,2013-03-13 06:48:00,
2013-03-13 01:53:00,28.4,12.6,30.20,NE,54,0.0,0.0,51,0.00,,,0.00,WeatherDisplay:10.36,2013-03-13 06:53:00,
2013-03-13 01:58:00,28.2,12.4,30.20,East,86,4.6,4.6,51,0.00,,,0.00,WeatherDisplay:10.36,2013-03-13 06:58:00,
2013-03-13 02:03:00,28.2,12.8,30.20,SE,129,0.0,0.0,52,0.00,,,0.00,WeatherDisplay:10.36,2013-03-13 07:03:00,
2013-03-13 02:08:00,28.2,12.8,30.20,East,95,0.0,0.0,52,0.00,,,0.00,WeatherDisplay:10.36,2013-03-13 07:08:00,
2013-03-13 02:13:00,28.2,12.8,30.20,ENE,57,0.0,0.0,52,0.00,,,0.00,WeatherDisplay:10.36,2013-03-13 07:13:00,
2013-03-13 02:18:00,28.2,12.8,30.20,ENE,68,0.0,0.0,52,0.00,,,0.00,WeatherDisplay:10.36,2013-03-13 07:18:00,
2013-03-13 02:23:00,28.2,12.8,30.20,ENE,77,0.0,0.0,52,0.00,,,0.00,WeatherDisplay:10.36,2013-03-13 07:23:00,
2013-03-13 02:28:00,28.2,12.8,30.20,SE,139,0.0,0.0,52,0.00,,,0.00,WeatherDisplay:10.36,2013-03-13 07:28:00,
2013-03-13 02:33:00,28.2,12.8,30.23,ENE,77,0.0,0.0,52,0.00,,,0.00,WeatherDisplay:10.36,2013-03-13 07:33:00,
2013-03-13 02:38:00,28.2,12.8,30.23,ESE,118,0.0,0.0,52,0.00,,,0.00,WeatherDisplay:10.36,2013-03-13 07:38:00,
2013-03-13 02:43:00,28.2,12.8,30.23,East,101,0.0,0.0,52,0.00,,,0.00,WeatherDisplay:10.36,2013-03-13 07:43:00,
2013-03-13 02:48:00,28.4,13.4,30.23,ENE,64,0.0,0.0,53,0.00,,,0.00,WeatherDisplay:10.36,2013-03-13 07:48:00,
2013-03-13 02:53:00,28.4,13.4,30.23,East,91,0.0,0.0,53,0.00,,,0.00,WeatherDisplay:10.36,2013-03-13 07:53:00,
2013-03-13 02:59:00,28.4,13.4,30.23,ESE,105,0.0,0.0,53,0.00,,,0.00,WeatherDisplay:10.36,2013-03-13 07:59:00,
2013-03-13 03:04:00,28.2,13.3,30.23,ENE,72,0.0,0.0,53,0.00,,,0.00,WeatherDisplay:10.36,2013-03-13 08:04:00,
2013-03-13 03:09:00,28.2,13.3,30.23,East,100,0.0,0.0,53,0.00,,,0.00,WeatherDisplay:10.36,2013-03-13 08:09:00,
2013-03-13 03:14:00,28.0,13.1,30.23,East,95,0.0,0.0,53,0.00,,,0.00,WeatherDisplay:10.36,2013-03-13 08:14:00,
2013-03-13 03:19:00,28.0,13.1,30.23,NE,52,0.0,0.0,53,0.00,,,0.00,WeatherDisplay:10.36,2013-03-13 08:19:00,
2013-03-13 03:24:00,27.9,12.9,30.23,ENE,59,0.0,0.0,53,0.00,,,0.00,WeatherDisplay:10.36,2013-03-13 08:24:00,
2013-03-13 03:29:00,27.7,12.8,30.23,NE,52,0.0,0.0,53,0.00,,,0.00,WeatherDisplay:10.36,2013-03-13 08:29:00,
2013-03-13 03:34:00,27.5,12.2,30.23,East,96,0.0,0.0,52,0.00,,,0.00,WeatherDisplay:10.36,2013-03-13 08:34:00,
2013-03-13 03:39:00,27.5,12.6,30.23,East,85,0.0,0.0,53,0.00,,,0.00,WeatherDisplay:10.36,2013-03-13 08:39:00,
2013-03-13 03:44:00,27.5,12.6,30.23,East,92,0.0,0.0,53,0.00,,,0.00,WeatherDisplay:10.36,2013-03-13 08:44:00,
2013-03-13 03:49:00,27.3,12.0,30.23,SSE,164,0.0,0.0,52,0.00,,,0.00,WeatherDisplay:10.36,2013-03-13 08:49:00,
2013-03-13 03:54:00,27.3,12.0,30.23,East,80,0.0,0.0,52,0.00,,,0.00,WeatherDisplay:10.36,2013-03-13 08:54:00,
2013-03-13 03:59:00,27.3,12.0,30.23,East,90,0.0,0.0,52,0.00,,,0.00,WeatherDisplay:10.36,2013-03-13 08:59:00,
2013-03-13 04:04:00,27.3,12.0,30.23,NE,53,0.0,0.0,52,0.00,,,0.00,WeatherDisplay:10.36,2013-03-13 09:04:00,
2013-03-13 04:09:00,27.1,11.4,30.23,East,79,0.0,0.0,51,0.00,,,0.00,WeatherDisplay:10.36,2013-03-13 09:09:00,
2013-03-13 04:14:00,27.1,11.4,30.23,ENE,74,0.0,0.0,51,0.00,,,0.00,WeatherDisplay:10.36,2013-03-13 09:14:00,
2013-03-13 04:19:00,27.1,11.4,30.23,ENE,67,0.0,0.0,51,0.00,,,0.00,WeatherDisplay:10.36,2013-03-13 09:19:00,
2013-03-13 04:24:00,27.3,12.0,30.23,SE,135,0.0,0.0,52,0.00,,,0.00,WeatherDisplay:10.36,2013-03-13 09:24:00,
2013-03-13 04:29:00,27.3,12.0,30.23,NE,51,0.0,0.0,52,0.00,,,0.00,WeatherDisplay:10.36,2013-03-13 09:29:00,
2013-03-13 04:34:00,27.5,12.2,30.23,NE,55,0.0,0.0,52,0.00,,,0.00,WeatherDisplay:10.36,2013-03-13 09:34:00,
2013-03-13 04:39:00,27.3,12.0,30.23,ESE,123,0.0,0.0,52,0.00,,,0.00,WeatherDisplay:10.36,2013-03-13 09:39:00,
2013-03-13 04:44:00,27.3,12.0,30.23,NE,47,0.0,0.0,52,0.00,,,0.00,WeatherDisplay:10.36,2013-03-13 09:44:00,
2013-03-13 04:49:00,27.3,12.0,30.23,NE,53,0.0,0.0,52,0.00,,,0.00,WeatherDisplay:10.36,2013-03-13 09:49:00,
2013-03-13 04:54:00,27.1,11.8,30.23,SE,135,0.0,0.0,52,0.00,,,0.00,WeatherDisplay:10.36,2013-03-13 09:54:00,
2013-03-13 04:59:00,27.1,11.8,30.23,NE,51,0.0,0.0,52,0.00,,,0.00,WeatherDisplay:10.36,2013-03-13 09:59:00,
2013-03-13 05:04:00,27.1,11.8,30.23,East,101,0.0,0.0,52,0.00,,,0.00,WeatherDisplay:10.36,2013-03-13 10:04:00,
2013-03-13 05:09:00,27.1,12.3,30.23,East,95,0.0,0.0,53,0.00,,,0.00,WeatherDisplay:10.36,2013-03-13 10:09:00,
2013-03-13 05:14:00,27.1,12.3,30.23,East,95,0.0,0.0,53,0.00,,,0.00,WeatherDisplay:10.36,2013-03-13 10:14:00,
2013-03-13 05:19:00,27.1,12.3,30.26,SE,131,0.0,0.0,53,0.00,,,0.00,WeatherDisplay:10.36,2013-03-13 10:19:00,
2013-03-13 05:24:00,27.1,12.3,30.26,NE,53,0.0,0.0,53,0.00,,,0.00,WeatherDisplay:10.36,2013-03-13 10:24:00,
2013-03-13 05:29:00,27.1,12.3,30.26,NE,48,0.0,0.0,53,0.00,,,0.00,WeatherDisplay:10.36,2013-03-13 10:29:00,
2013-03-13 05:34:00,27.1,12.3,30.26,SE,136,0.0,0.0,53,0.00,,,0.00,WeatherDisplay:10.36,2013-03-13 10:34:00,
2013-03-13 05:39:00,27.0,12.1,30.26,SE,130,0.0,0.0,53,0.00,,,0.00,WeatherDisplay:10.36,2013-03-13 10:39:00,
2013-03-13 05:44:00,27.0,12.1,30.26,ENE,66,0.0,0.0,53,0.00,,,0.00,WeatherDisplay:10.36,2013-03-13 10:44:00,
2013-03-13 05:49:00,26.8,11.9,30.26,ENE,66,0.0,0.0,53,0.00,,,0.00,WeatherDisplay:10.36,2013-03-13 10:49:00,
2013-03-13 05:54:00,26.6,11.7,30.26,NE,52,0.0,0.0,53,0.00,,,0.00,WeatherDisplay:10.36,2013-03-13 10:54:00,
2013-03-13 05:59:00,26.6,11.7,30.26,ESE,110,0.0,0.0,53,0.00,,,0.00,WeatherDisplay:10.36,2013-03-13 10:59:00,
2013-03-13 06:04:00,26.2,11.4,30.26,East,90,0.0,0.0,53,0.00,,,0.00,WeatherDisplay:10.36,2013-03-13 11:04:00,
2013-03-13 06:08:00,26.1,11.2,30.26,South,191,7.4,7.4,53,0.00,,,0.00,WeatherDisplay:10.36,2013-03-13 11:08:00,
2013-03-13 06:09:00,26.2,11.4,30.26,ENE,71,0.0,0.0,53,0.00,,,0.00,WeatherDisplay:10.36,2013-03-13 11:09:00,
2013-03-13 06:14:00,26.1,11.2,30.26,ESE,120,0.0,0.0,53,0.00,,,0.00,WeatherDisplay:10.36,2013-03-13 11:14:00,
2013-03-13 06:23:00,25.9,11.1,30.29,North,351,0.0,0.0,53,0.00,,,0.00,WeatherDisplay:10.36,2013-03-13 11:23:00,
2013-03-13 06:28:00,25.7,10.9,30.29,ENE,64,0.0,0.0,53,0.00,,,0.00,WeatherDisplay:10.36,2013-03-13 11:28:00,
2013-03-13 06:33:00,25.5,10.7,30.29,East,91,0.0,0.0,53,0.00,,,0.00,WeatherDisplay:10.36,2013-03-13 11:33:00,
2013-03-13 06:38:00,25.5,10.7,30.29,ENE,73,0.0,0.0,53,0.00,,,0.00,WeatherDisplay:10.36,2013-03-13 11:38:00,
2013-03-13 06:43:00,25.3,10.6,30.29,ESE,105,0.0,0.0,53,0.00,,,0.00,WeatherDisplay:10.36,2013-03-13 11:43:00,
2013-03-13 06:48:00,25.3,10.6,30.29,SE,137,0.0,0.0,53,0.00,,,0.00,WeatherDisplay:10.36,2013-03-13 11:48:00,
2013-03-13 06:53:00,25.2,10.4,30.29,West,266,0.0,0.0,53,0.00,,,0.00,WeatherDisplay:10.36,2013-03-13 11:53:00,
2013-03-13 06:58:00,25.2,10.4,30.29,East,87,0.0,0.0,53,0.00,,,0.00,WeatherDisplay:10.36,2013-03-13 11:58:00,
2013-03-13 07:03:00,25.0,10.2,30.29,ENE,61,0.0,0.0,53,0.00,,,0.00,WeatherDisplay:10.36,2013-03-13 12:03:00,
2013-03-13 07:08:00,25.0,10.2,30.29,ENE,62,0.0,0.0,53,0.00,,,0.00,WeatherDisplay:10.36,2013-03-13 12:08:00,
2013-03-13 07:13:00,24.8,10.1,30.29,ESE,108,0.0,0.0,53,0.00,,,0.00,WeatherDisplay:10.36,2013-03-13 12:13:00,
2013-03-13 07:18:00,24.8,10.1,30.29,East,92,0.0,0.0,53,0.00,,,0.00,WeatherDisplay:10.36,2013-03-13 12:18:00,
2013-03-13 07:23:00,24.8,10.1,30.29,SE,136,0.0,0.0,53,0.00,,,0.00,WeatherDisplay:10.36,2013-03-13 12:23:00,
2013-03-13 07:28:00,24.8,10.1,30.29,WSW,257,0.0,0.0,53,0.00,,,0.00,WeatherDisplay:10.36,2013-03-13 12:28:00,
2013-03-13 07:33:00,24.8,10.5,30.29,ESE,123,0.0,0.0,54,0.00,,,0.00,WeatherDisplay:10.36,2013-03-13 12:33:00,
2013-03-13 07:38:00,24.8,10.5,30.29,ESE,118,0.0,0.0,54,0.00,,,0.00,WeatherDisplay:10.36,2013-03-13 12:38:00,
2013-03-13 07:43:00,24.8,10.5,30.29,SE,134,0.0,0.0,54,0.00,,,0.00,WeatherDisplay:10.36,2013-03-13 12:43:00,
2013-03-13 07:48:00,24.8,10.5,30.32,ESE,113,0.0,0.0,54,0.00,,,0.00,WeatherDisplay:10.36,2013-03-13 12:48:00,
2013-03-13 07:53:00,25.0,11.1,30.32,NE,45,0.0,0.0,55,0.00,,,0.00,WeatherDisplay:10.36,2013-03-13 12:53:00,
2013-03-13 07:58:00,25.2,11.2,30.32,East,84,0.0,0.0,55,0.00,,,0.00,WeatherDisplay:10.36,2013-03-13 12:58:00,
2013-03-13 08:03:00,25.5,11.6,30.32,East,97,0.0,0.0,55,0.00,,,0.00,WeatherDisplay:10.36,2013-03-13 13:03:00,
2013-03-13 08:08:00,25.9,11.9,30.32,SSE,167,0.0,0.0,55,0.00,,,0.00,WeatherDisplay:10.36,2013-03-13 13:08:00,
2013-03-13 08:13:00,26.2,12.2,30.32,East,90,0.0,0.0,55,0.00,,,0.00,WeatherDisplay:10.36,2013-03-13 13:13:00,
2013-03-13 08:18:00,26.8,12.8,30.32,ENE,76,0.0,0.0,55,0.00,,,0.00,WeatherDisplay:10.36,2013-03-13 13:18:00,
2013-03-13 08:23:00,27.1,13.1,30.32,East,88,0.0,0.0,55,0.00,,,0.00,WeatherDisplay:10.36,2013-03-13 13:23:00,
2013-03-13 08:28:00,27.3,13.3,30.32,ESE,119,0.0,0.0,55,0.00,,,0.00,WeatherDisplay:10.36,2013-03-13 13:28:00,
2013-03-13 08:33:00,27.7,13.2,30.32,SE,126,0.0,0.0,54,0.00,,,0.00,WeatherDisplay:10.36,2013-03-13 13:33:00,
2013-03-13 08:38:00,28.0,13.5,30.32,ENE,66,0.0,0.0,54,0.00,,,0.00,WeatherDisplay:10.36,2013-03-13 13:38:00,
2013-03-13 08:43:00,28.4,13.4,30.32,NE,47,0.0,0.0,53,0.00,,,0.00,WeatherDisplay:10.36,2013-03-13 13:43:00,
2013-03-13 08:48:00,28.6,13.6,30.32,ENE,78,0.0,0.0,53,0.00,,,0.00,WeatherDisplay:10.36,2013-03-13 13:48:00,
2013-03-13 08:53:00,28.8,13.8,30.32,ENE,60,0.0,0.0,53,0.00,,,0.00,WeatherDisplay:10.36,2013-03-13 13:53:00,
2013-03-13 08:58:00,29.1,13.7,30.32,East,87,0.0,0.0,52,0.00,,,0.00,WeatherDisplay:10.36,2013-03-13 13:58:00,
2013-03-13 09:03:00,29.5,14.0,30.32,NE,50,0.0,0.0,52,0.00,,,0.00,WeatherDisplay:10.36,2013-03-13 14:03:00,
2013-03-13 09:08:00,30.0,14.5,30.32,NE,54,0.0,0.0,52,0.00,,,0.00,WeatherDisplay:10.36,2013-03-13 14:08:00,
2013-03-13 09:13:00,30.4,14.8,30.32,NE,50,0.0,0.0,52,0.00,,,0.00,WeatherDisplay:10.36,2013-03-13 14:13:00,
2013-03-13 09:18:00,31.1,15.5,30.35,ENE,75,0.0,0.0,52,0.00,,,0.00,WeatherDisplay:10.36,2013-03-13 14:18:00,
2013-03-13 09:24:00,31.6,16.0,30.35,East,93,0.0,0.0,52,0.00,,,0.00,WeatherDisplay:10.36,2013-03-13 14:24:00,
2013-03-13 09:29:00,32.4,16.2,30.35,SE,145,0.0,0.0,51,0.00,,,0.00,WeatherDisplay:10.36,2013-03-13 14:29:00,
2013-03-13 09:34:00,32.5,16.4,30.35,NE,53,0.0,0.0,51,0.00,,,0.00,WeatherDisplay:10.36,2013-03-13 14:34:00,
2013-03-13 09:39:00,33.1,16.9,30.35,NE,50,0.0,0.0,51,0.00,,,0.00,WeatherDisplay:10.36,2013-03-13 14:39:00,
2013-03-13 09:44:00,33.1,16.0,30.35,SSW,198,0.0,0.0,49,0.00,,,0.00,WeatherDisplay:10.36,2013-03-13 14:44:00,
2013-03-13 09:49:00,33.1,15.5,30.35,ENE,64,0.0,0.0,48,0.00,,,0.00,WeatherDisplay:10.36,2013-03-13 14:49:00,
2013-03-13 09:54:00,33.3,15.2,30.35,ESE,116,0.0,0.0,47,0.00,,,0.00,WeatherDisplay:10.36,2013-03-13 14:54:00,
2013-03-13 09:59:00,33.4,14.8,30.35,East,80,0.0,0.0,46,0.00,,,0.00,WeatherDisplay:10.36,2013-03-13 14:59:00,
2013-03-13 10:04:00,33.8,14.7,30.35,ENE,68,0.0,0.0,45,0.00,,,0.00,WeatherDisplay:10.36,2013-03-13 15:04:00,
2013-03-13 10:09:00,33.8,13.1,30.35,East,88,0.0,0.0,42,0.00,,,0.00,WeatherDisplay:10.36,2013-03-13 15:09:00,
2013-03-13 10:14:00,33.6,12.9,30.35,East,98,0.0,0.0,42,0.00,,,0.00,WeatherDisplay:10.36,2013-03-13 15:14:00,
2013-03-13 10:19:00,33.6,12.4,30.35,ENE,64,0.0,0.0,41,0.00,,,0.00,WeatherDisplay:10.36,2013-03-13 15:19:00,
2013-03-13 10:24:00,33.8,12.6,30.35,NE,50,8.7,8.7,41,0.00,,,0.00,WeatherDisplay:10.36,2013-03-13 15:24:00,
2013-03-13 10:29:00,34.0,12.7,30.35,East,100,8.1,8.1,41,0.00,,,0.00,WeatherDisplay:10.36,2013-03-13 15:29:00,
2013-03-13 10:34:00,34.7,13.4,30.35,East,93,0.0,0.0,41,0.00,,,0.00,WeatherDisplay:10.36,2013-03-13 15:34:00,
2013-03-13 10:39:00,35.1,13.1,30.35,East,86,5.8,0.0,40,0.00,,,0.00,WeatherDisplay:10.36,2013-03-13 15:39:00,
2013-03-13 10:44:00,35.1,11.4,30.35,ENE,60,9.2,9.2,37,0.00,,,0.00,WeatherDisplay:10.36,2013-03-13 15:44:00,
2013-03-13 10:49:00,34.9,11.2,30.38,NNE,30,8.7,8.7,37,0.00,,,0.00,WeatherDisplay:10.36,2013-03-13 15:49:00,
2013-03-13 10:54:00,34.9,11.2,30.38,East,80,8.3,8.3,37,0.00,,,0.00,WeatherDisplay:10.36,2013-03-13 15:54:00,
2013-03-13 10:59:00,35.2,11.5,30.38,SSE,167,4.6,4.6,37,0.00,,,0.00,WeatherDisplay:10.36,2013-03-13 15:59:00,
2013-03-13 11:04:00,35.6,11.9,31.24,NE,49,0.0,0.0,37,0.00,,,0.00,WeatherDisplay:10.36,2013-03-13 16:04:00,
2013-03-13 11:09:00,35.8,12.0,31.24,NE,56,0.0,0.0,37,0.00,,,0.00,WeatherDisplay:10.36,2013-03-13 16:09:00,
2013-03-13 11:14:00,35.8,10.1,31.24,South,181,0.0,0.0,34,0.00,,,0.00,WeatherDisplay:10.36,2013-03-13 16:14:00,
2013-03-13 11:19:00,36.3,11.2,30.38,NE,46,0.0,0.0,35,0.00,,,0.00,WeatherDisplay:10.36,2013-03-13 16:19:00,
2013-03-13 11:24:00,36.0,9.6,30.38,NE,49,0.0,0.0,33,0.00,,,0.00,WeatherDisplay:10.36,2013-03-13 16:24:00,
2013-03-13 11:29:00,36.0,10.3,30.38,NE,51,0.0,0.0,34,0.00,,,0.00,WeatherDisplay:10.36,2013-03-13 16:29:00,
2013-03-13 11:34:00,36.1,10.4,30.38,NE,46,0.0,0.0,34,0.00,,,0.00,WeatherDisplay:10.36,2013-03-13 16:34:00,
2013-03-13 11:39:00,36.1,9.1,30.38,SW,230,0.0,0.0,32,0.00,,,0.00,WeatherDisplay:10.36,2013-03-13 16:39:00,
2013-03-13 11:44:00,36.1,8.4,30.38,NE,55,0.0,0.0,31,0.00,,,0.00,WeatherDisplay:10.36,2013-03-13 16:44:00,
2013-03-13 11:49:00,36.3,9.2,30.38,SE,128,0.0,0.0,32,0.00,,,0.00,WeatherDisplay:10.36,2013-03-13 16:49:00,
2013-03-13 11:54:00,36.7,8.8,30.38,North,351,0.0,0.0,31,0.00,,,0.00,WeatherDisplay:10.36,2013-03-13 16:54:00,
2013-03-13 11:59:00,36.9,9.0,30.38,SE,134,0.0,0.0,31,0.00,,,0.00,WeatherDisplay:10.36,2013-03-13 16:59:00,
2013-03-13 12:04:00,37.0,9.2,30.38,NNE,26,0.0,0.0,31,0.00,,,0.00,WeatherDisplay:10.36,2013-03-13 17:04:00,
2013-03-13 12:09:00,36.7,8.1,30.38,NE,52,0.0,0.0,30,0.00,,,0.00,WeatherDisplay:10.36,2013-03-13 17:09:00,
2013-03-13 12:14:00,36.7,8.1,30.38,NE,49,0.0,0.0,30,0.00,,,0.00,WeatherDisplay:10.36,2013-03-13 17:14:00,
2013-03-13 12:19:00,36.3,8.5,31.18,NE,52,0.0,0.0,31,0.00,,,0.00,WeatherDisplay:10.36,2013-03-13 17:19:00,
2013-03-13 12:24:00,36.7,8.8,31.18,East,89,0.0,0.0,31,0.00,,,0.00,WeatherDisplay:10.36,2013-03-13 17:24:00,
2013-03-13 12:29:00,37.4,10.2,31.18,SE,130,8.1,8.1,32,0.00,,,0.00,WeatherDisplay:10.36,2013-03-13 17:29:00,
2013-03-13 12:34:00,37.6,9.6,31.21,NE,36,9.6,9.6,31,0.00,,,0.00,WeatherDisplay:10.36,2013-03-13 17:34:00,
2013-03-13 12:39:00,37.6,9.6,31.21,NE,37,9.2,9.2,31,0.00,,,0.00,WeatherDisplay:10.36,2013-03-13 17:39:00,
2013-03-13 12:44:00,37.9,9.9,31.21,North,351,8.3,8.3,31,0.00,,,0.00,WeatherDisplay:10.36,2013-03-13 17:44:00,
2013-03-13 12:49:00,37.9,9.9,30.41,East,86,8.3,8.3,31,0.00,,,0.00,WeatherDisplay:10.36,2013-03-13 17:49:00,
2013-03-13 12:54:00,38.1,9.4,30.41,ENE,75,11.5,11.5,30,0.00,,,0.00,WeatherDisplay:10.36,2013-03-13 17:54:00,
2013-03-13 12:59:00,38.3,10.3,30.41,East,89,4.9,4.9,31,0.00,,,0.00,WeatherDisplay:10.36,2013-03-13 17:59:00,
2013-03-13 13:04:00,39.0,10.2,30.41,NE,47,7.4,7.4,30,0.00,,,0.00,WeatherDisplay:10.36,2013-03-13 18:04:00,
2013-03-13 13:09:00,39.4,11.2,30.41,ENE,61,7.4,7.4,31,0.00,,,0.00,WeatherDisplay:10.36,2013-03-13 18:09:00,
2013-03-13 13:14:00,39.9,10.9,30.41,ENE,70,11.5,11.5,30,0.00,,,0.00,WeatherDisplay:10.36,2013-03-13 18:14:00,
2013-03-13 13:19:00,39.7,10.8,30.38,ENE,65,5.8,5.8,30,0.00,,,0.00,WeatherDisplay:10.36,2013-03-13 18:19:00,
2013-03-13 13:25:00,39.9,10.9,30.38,SE,133,6.9,6.9,30,0.00,,,0.00,WeatherDisplay:10.36,2013-03-13 18:25:00,
2013-03-13 13:30:00,40.5,11.4,30.38,SSE,155,6.3,6.3,30,0.00,,,0.00,WeatherDisplay:10.36,2013-03-13 18:30:00,
2013-03-13 13:35:00,40.6,11.6,30.38,ESE,111,8.3,8.3,30,0.00,,,0.00,WeatherDisplay:10.36,2013-03-13 18:35:00,
2013-03-13 13:40:00,41.0,11.9,30.38,ESE,109,9.2,9.2,30,0.00,,,0.00,WeatherDisplay:10.36,2013-03-13 18:40:00,
2013-03-13 13:45:00,41.0,11.1,30.38,NE,50,11.2,11.2,29,0.00,,,0.00,WeatherDisplay:10.36,2013-03-13 18:45:00,
2013-03-13 13:50:00,40.3,10.5,30.38,NE,48,7.4,7.4,29,0.00,,,0.00,WeatherDisplay:10.36,2013-03-13 18:50:00,
2013-03-13 13:55:00,40.3,10.5,30.38,ESE,116,6.9,6.9,29,0.00,,,0.00,WeatherDisplay:10.36,2013-03-13 18:55:00,
2013-03-13 14:00:00,40.6,11.6,30.38,ENE,61,5.8,5.8,30,0.00,,,0.00,WeatherDisplay:10.36,2013-03-13 19:00:00,
2013-03-13 14:05:00,41.2,12.0,30.38,NE,46,9.6,9.6,30,0.00,,,0.00,WeatherDisplay:10.36,2013-03-13 19:05:00,
2013-03-13 14:10:00,41.4,12.2,30.38,NE,46,8.7,8.7,30,0.00,,,0.00,WeatherDisplay:10.36,2013-03-13 19:10:00,
2013-03-13 14:15:00,41.0,11.1,30.38,SE,138,7.4,7.4,29,0.00,,,0.00,WeatherDisplay:10.36,2013-03-13 19:15:00,
2013-03-13 14:20:00,41.0,11.1,30.38,SSE,153,7.4,7.4,29,0.00,,,0.00,WeatherDisplay:10.36,2013-03-13 19:20:00,
2013-03-13 14:25:00,41.4,12.2,30.38,South,178,5.8,5.8,30,0.00,,,0.00,WeatherDisplay:10.36,2013-03-13 19:25:00,
2013-03-13 14:30:00,41.7,12.5,30.38,ENE,62,6.9,6.9,30,0.00,,,0.00,WeatherDisplay:10.36,2013-03-13 19:30:00,
2013-03-13 14:35:00,41.9,12.7,30.38,NE,48,6.9,6.9,30,0.00,,,0.00,WeatherDisplay:10.36,2013-03-13 19:35:00,
2013-03-13 14:40:00,42.1,12.1,30.38,NE,46,7.4,7.4,29,0.00,,,0.00,WeatherDisplay:10.36,2013-03-13 19:40:00,
2013-03-13 14:45:00,42.1,12.1,30.38,SW,216,6.9,6.9,29,0.00,,,0.00,WeatherDisplay:10.36,2013-03-13 19:45:00,
2013-03-13 14:50:00,42.1,12.1,30.38,SE,128,6.9,6.9,29,0.00,,,0.00,WeatherDisplay:10.36,2013-03-13 19:50:00,
2013-03-13 14:55:00,42.3,12.2,30.38,ENE,70,5.8,5.8,29,0.00,,,0.00,WeatherDisplay:10.36,2013-03-13 19:55:00,
2013-03-13 15:01:00,42.1,12.1,30.38,North,351,9.2,9.2,29,0.00,,,0.00,WeatherDisplay:10.36,2013-03-13 20:01:00,
2013-03-13 15:06:00,42.1,12.1,30.38,ENE,73,5.8,5.8,29,0.00,,,0.00,WeatherDisplay:10.36,2013-03-13 20:06:00,
2013-03-13 15:12:00,42.4,13.1,30.38,SSE,164,6.7,6.7,30,0.00,,,0.00,WeatherDisplay:10.36,2013-03-13 20:12:00,
2013-03-13 15:17:00,42.8,14.2,30.35,ENE,64,5.8,5.8,31,0.00,,,0.00,WeatherDisplay:10.36,2013-03-13 20:17:00,
2013-03-13 15:22:00,43.0,15.1,30.35,NE,49,7.8,7.8,32,0.00,,,0.00,WeatherDisplay:10.36,2013-03-13 20:22:00,
2013-03-13 15:27:00,43.2,15.3,30.35,SE,137,8.1,8.1,32,0.00,,,0.00,WeatherDisplay:10.36,2013-03-13 20:27:00,
2013-03-13 15:32:00,43.2,15.3,30.35,NE,46,4.0,4.0,32,0.00,,,0.00,WeatherDisplay:10.36,2013-03-13 20:32:00,
2013-03-13 15:37:00,43.3,14.7,30.35,East,87,3.1,4.5,31,0.00,,,0.00,WeatherDisplay:10.36,2013-03-13 20:37:00,
2013-03-13 15:42:00,43.2,13.8,30.35,East,94,9.2,9.2,30,0.00,,,0.00,WeatherDisplay:10.36,2013-03-13 20:42:00,
2013-03-13 15:47:00,43.2,13.8,30.35,SSE,160,3.6,4.9,30,0.00,,,0.00,WeatherDisplay:10.36,2013-03-13 20:47:00,
2013-03-13 15:52:00,43.5,14.1,30.35,SSE,155,6.3,6.3,30,0.00,,,0.00,WeatherDisplay:10.36,2013-03-13 20:52:00,
2013-03-13 15:57:00,43.3,13.2,30.35,SSE,157,3.6,3.6,29,0.00,,,0.00,WeatherDisplay:10.36,2013-03-13 20:57:00,
2013-03-13 16:02:00,42.8,12.7,30.35,ENE,60,5.8,5.8,29,0.00,,,0.00,WeatherDisplay:10.36,2013-03-13 21:02:00,
2013-03-13 16:07:00,42.6,12.5,30.35,East,79,6.7,6.7,29,0.00,,,0.00,WeatherDisplay:10.36,2013-03-13 21:07:00,
2013-03-13 16:12:00,42.4,12.4,30.35,ENE,59,8.1,8.1,29,0.00,,,0.00,WeatherDisplay:10.36,2013-03-13 21:12:00,
2013-03-13 16:17:00,42.3,12.2,30.35,ESE,118,6.3,6.3,29,0.00,,,0.00,WeatherDisplay:10.36,2013-03-13 21:17:00,
2013-03-13 16:22:00,42.3,12.2,30.35,ENE,65,4.5,4.5,29,0.00,,,0.00,WeatherDisplay:10.36,2013-03-13 21:22:00,
2013-03-13 16:27:00,42.3,13.0,30.35,NE,51,5.8,5.8,30,0.00,,,0.00,WeatherDisplay:10.36,2013-03-13 21:27:00,
2013-03-13 16:33:00,42.1,12.1,30.35,ENE,75,5.8,5.8,29,0.00,,,0.00,WeatherDisplay:10.36,2013-03-13 21:33:00,
2013-03-13 16:38:00,42.1,12.1,30.35,ESE,110,6.7,6.7,29,0.00,,,0.00,WeatherDisplay:10.36,2013-03-13 21:38:00,
2013-03-13 16:43:00,41.9,11.9,30.35,NE,46,4.6,4.6,29,0.00,,,0.00,WeatherDisplay:10.36,2013-03-13 21:43:00,
2013-03-13 16:48:00,41.9,12.7,30.35,ENE,62,7.8,7.8,30,0.00,,,0.00,WeatherDisplay:10.36,2013-03-13 21:48:00,
2013-03-13 16:53:00,41.7,11.7,30.35,NE,55,4.9,4.9,29,0.00,,,0.00,WeatherDisplay:10.36,2013-03-13 21:53:00,
2013-03-13 16:58:00,41.7,11.7,30.35,SSE,162,5.8,5.8,29,0.00,,,0.00,WeatherDisplay:10.36,2013-03-13 21:58:00,
2013-03-13 17:03:00,41.7,11.7,30.35,East,79,5.8,5.8,29,0.00,,,0.00,WeatherDisplay:10.36,2013-03-13 22:03:00,
2013-03-13 17:08:00,41.5,11.6,30.35,SSE,154,6.9,6.9,29,0.00,,,0.00,WeatherDisplay:10.36,2013-03-13 22:08:00,
2013-03-13 17:13:00,41.4,11.4,30.35,SSW,193,5.8,5.8,29,0.00,,,0.00,WeatherDisplay:10.36,2013-03-13 22:13:00,
2013-03-13 17:18:00,41.2,11.3,30.35,ESE,112,6.3,6.3,29,0.00,,,0.00,WeatherDisplay:10.36,2013-03-13 22:18:00,
2013-03-13 17:23:00,41.2,11.3,30.35,East,80,5.8,5.8,29,0.00,,,0.00,WeatherDisplay:10.36,2013-03-13 22:23:00,
2013-03-13 17:28:00,41.0,11.1,30.35,NNE,28,5.8,5.8,29,0.00,,,0.00,WeatherDisplay:10.36,2013-03-13 22:28:00,
2013-03-13 17:33:00,40.6,10.8,31.15,ENE,71,4.5,4.5,29,0.00,,,0.00,WeatherDisplay:10.36,2013-03-13 22:33:00,
2013-03-13 17:38:00,40.5,9.9,31.15,SW,228,0.0,0.0,28,0.00,,,0.00,WeatherDisplay:10.36,2013-03-13 22:38:00,
2013-03-13 17:43:00,40.3,10.5,31.15,East,85,4.5,4.5,29,0.00,,,0.00,WeatherDisplay:10.36,2013-03-13 22:43:00,
2013-03-13 17:48:00,40.3,10.5,30.35,NE,50,6.3,6.3,29,0.00,,,0.00,WeatherDisplay:10.36,2013-03-13 22:48:00,
2013-03-13 17:53:00,40.1,10.3,30.35,SE,143,4.9,0.0,29,0.00,,,0.00,WeatherDisplay:10.36,2013-03-13 22:53:00,
2013-03-13 17:58:00,39.9,10.2,30.35,NE,48,3.6,3.6,29,0.00,,,0.00,WeatherDisplay:10.36,2013-03-13 22:58:00,
2013-03-13 18:03:00,39.7,10.0,30.35,ESE,113,3.6,3.6,29,0.00,,,0.00,WeatherDisplay:10.36,2013-03-13 23:03:00,
2013-03-13 18:08:00,39.7,10.0,30.35,ESE,116,0.0,0.0,29,0.00,,,0.00,WeatherDisplay:10.36,2013-03-13 23:08:00,
2013-03-13 18:13:00,39.6,9.9,30.35,ENE,72,6.9,6.9,29,0.00,,,0.00,WeatherDisplay:10.36,2013-03-13 23:13:00,
2013-03-13 18:18:00,39.4,9.7,30.35,ENE,57,3.5,0.0,29,0.00,,,0.00,WeatherDisplay:10.36,2013-03-13 23:18:00,
2013-03-13 18:23:00,39.2,10.3,30.35,ENE,67,4.6,4.6,30,0.00,,,0.00,WeatherDisplay:10.36,2013-03-13 23:23:00,
2013-03-13 18:28:00,39.2,10.3,30.35,East,99,4.0,4.0,30,0.00,,,0.00,WeatherDisplay:10.36,2013-03-13 23:28:00,
2013-03-13 18:33:00,39.0,10.2,30.35,NE,48,5.4,5.4,30,0.00,,,0.00,WeatherDisplay:10.36,2013-03-13 23:33:00,
2013-03-13 18:38:00,38.7,9.8,30.35,ESE,104,4.0,4.0,30,0.00,,,0.00,WeatherDisplay:10.36,2013-03-13 23:38:00,
2013-03-13 18:43:00,38.5,9.7,30.35,SE,146,3.6,3.6,30,0.00,,,0.00,WeatherDisplay:10.36,2013-03-13 23:43:00,
2013-03-13 18:48:00,38.3,9.5,30.35,ENE,78,4.9,4.9,30,0.00,,,0.00,WeatherDisplay:10.36,2013-03-13 23:48:00,
2013-03-13 18:53:00,38.1,10.1,30.35,SSE,159,5.8,5.8,31,0.00,,,0.00,WeatherDisplay:10.36,2013-03-13 23:53:00,
2013-03-13 18:58:00,37.9,9.9,30.35,ENE,70,0.0,0.0,31,0.00,,,0.00,WeatherDisplay:10.36,2013-03-13 23:58:00,
2013-03-13 19:03:00,37.6,9.6,30.32,ENE,68,0.0,0.0,31,0.00,,,0.00,WeatherDisplay:10.36,2013-03-14 00:03:00,
2013-03-13 19:08:00,37.4,9.5,30.32,ENE,66,0.0,0.0,31,0.00,,,0.00,WeatherDisplay:10.36,2013-03-14 00:08:00,
2013-03-13 19:13:00,37.0,9.2,30.32,SW,221,4.0,4.0,31,0.00,,,0.00,WeatherDisplay:10.36,2013-03-14 00:13:00,
2013-03-13 19:19:00,36.7,9.5,30.35,ENE,76,4.0,4.0,32,0.00,,,0.00,WeatherDisplay:10.36,2013-03-14 00:19:00,
2013-03-13 19:24:00,36.5,9.4,30.35,ENE,71,2.3,0.0,32,0.00,,,0.00,WeatherDisplay:10.36,2013-03-14 00:24:00,
2013-03-13 19:29:00,36.7,11.6,30.35,ENE,69,0.0,0.0,35,0.00,,,0.00,WeatherDisplay:10.36,2013-03-14 00:29:00,
2013-03-13 19:34:00,36.7,14.0,30.35,ENE,75,0.0,0.0,39,0.00,,,0.00,WeatherDisplay:10.36,2013-03-14 00:34:00,
2013-03-13 19:39:00,36.7,14.6,30.35,South,183,0.0,0.0,40,0.00,,,0.00,WeatherDisplay:10.36,2013-03-14 00:39:00,
2013-03-13 19:44:00,36.7,15.2,30.35,East,91,0.0,0.0,41,0.00,,,0.00,WeatherDisplay:10.36,2013-03-14 00:44:00,
2013-03-13 19:49:00,36.5,15.6,30.32,ENE,78,0.0,0.0,42,0.00,,,0.00,WeatherDisplay:10.36,2013-03-14 00:49:00,
2013-03-13 19:54:00,36.5,16.1,30.32,East,81,0.0,0.0,43,0.00,,,0.00,WeatherDisplay:10.36,2013-03-14 00:54:00,
2013-03-13 19:59:00,36.3,16.5,30.32,East,79,0.0,0.0,44,0.00,,,0.00,WeatherDisplay:10.36,2013-03-14 00:59:00,
2013-03-13 20:04:00,36.3,17.0,30.35,East,82,0.0,0.0,45,0.00,,,0.00,WeatherDisplay:10.36,2013-03-14 01:04:00,
2013-03-13 20:09:00,36.1,16.3,30.35,East,84,0.0,0.0,44,0.00,,,0.00,WeatherDisplay:10.36,2013-03-14 01:09:00,
2013-03-13 20:14:00,36.0,16.1,30.35,East,85,0.0,0.0,44,0.00,,,0.00,WeatherDisplay:10.36,2013-03-14 01:14:00,
2013-03-13 20:19:00,35.8,16.0,30.35,East,85,0.0,0.0,44,0.00,,,0.00,WeatherDisplay:10.36,2013-03-14 01:19:00,
2013-03-13 20:24:00,35.6,15.3,30.35,East,86,0.0,0.0,43,0.00,,,0.00,WeatherDisplay:10.36,2013-03-14 01:24:00,
2013-03-13 20:29:00,35.2,14.9,30.35,East,87,0.0,0.0,43,0.00,,,0.00,WeatherDisplay:10.36,2013-03-14 01:29:00,
2013-03-13 20:34:00,34.9,14.6,30.35,East,87,0.0,0.0,43,0.00,,,0.00,WeatherDisplay:10.36,2013-03-14 01:34:00,
2013-03-13 20:39:00,34.5,14.3,30.35,East,84,0.0,0.0,43,0.00,,,0.00,WeatherDisplay:10.36,2013-03-14 01:39:00,
2013-03-13 20:44:00,34.3,14.1,30.35,East,87,0.0,0.0,43,0.00,,,0.00,WeatherDisplay:10.36,2013-03-14 01:44:00,
2013-03-13 20:49:00,34.0,13.8,30.35,East,88,0.0,0.0,43,0.00,,,0.00,WeatherDisplay:10.36,2013-03-14 01:49:00,
2013-03-13 20:54:00,33.6,13.5,30.35,East,84,0.0,0.0,43,0.00,,,0.00,WeatherDisplay:10.36,2013-03-14 01:54:00,
2013-03-13 20:59:00,33.4,13.3,30.35,East,83,0.0,0.0,43,0.00,,,0.00,WeatherDisplay:10.36,2013-03-14 01:59:00,
2013-03-13 21:04:00,33.3,13.1,30.35,East,83,0.0,0.0,43,0.00,,,0.00,WeatherDisplay:10.36,2013-03-14 02:04:00,
2013-03-13 21:09:00,33.1,13.0,30.35,East,85,0.0,0.0,43,0.00,,,0.00,WeatherDisplay:10.36,2013-03-14 02:09:00,
2013-03-13 21:14:00,32.9,13.3,30.35,East,83,0.0,0.0,44,0.00,,,0.00,WeatherDisplay:10.36,2013-03-14 02:14:00,
2013-03-13 21:19:00,32.9,13.3,30.35,ENE,76,0.0,0.0,44,0.00,,,0.00,WeatherDisplay:10.36,2013-03-14 02:19:00,
2013-03-13 21:24:00,32.7,13.2,30.35,ENE,75,0.0,0.0,44,0.00,,,0.00,WeatherDisplay:10.36,2013-03-14 02:24:00,
2013-03-13 21:29:00,32.4,12.8,30.35,ENE,76,0.0,0.0,44,0.00,,,0.00,WeatherDisplay:10.36,2013-03-14 02:29:00,
2013-03-13 21:34:00,32.2,13.2,30.35,ENE,77,0.0,0.0,45,0.00,,,0.00,WeatherDisplay:10.36,2013-03-14 02:34:00,
2013-03-13 21:39:00,32.2,13.2,30.35,ENE,76,0.0,0.0,45,0.00,,,0.00,WeatherDisplay:10.36,2013-03-14 02:39:00,
2013-03-13 21:44:00,31.8,12.9,30.35,ENE,77,0.0,0.0,45,0.00,,,0.00,WeatherDisplay:10.36,2013-03-14 02:44:00,
2013-03-13 21:49:00,31.6,12.7,30.35,ENE,77,0.0,0.0,45,0.00,,,0.00,WeatherDisplay:10.36,2013-03-14 02:49:00,
2013-03-13 21:54:00,31.6,12.7,30.35,ENE,76,0.0,0.0,45,0.00,,,0.00,WeatherDisplay:10.36,2013-03-14 02:54:00,
2013-03-13 21:59:00,31.6,12.7,30.35,ENE,77,0.0,0.0,45,0.00,,,0.00,WeatherDisplay:10.36,2013-03-14 02:59:00,
2013-03-13 22:04:00,31.5,12.5,30.35,ENE,78,0.0,0.0,45,0.00,,,0.00,WeatherDisplay:10.36,2013-03-14 03:04:00,
2013-03-13 22:09:00,31.3,12.9,30.35,ENE,78,0.0,0.0,46,0.00,,,0.00,WeatherDisplay:10.36,2013-03-14 03:09:00,
2013-03-13 22:14:00,31.3,12.9,30.35,SE,130,0.0,0.0,46,0.00,,,0.00,WeatherDisplay:10.36,2013-03-14 03:14:00,
2013-03-13 22:19:00,31.1,12.7,30.35,NE,49,0.0,0.0,46,0.00,,,0.00,WeatherDisplay:10.36,2013-03-14 03:19:00,
2013-03-13 22:24:00,31.1,12.7,30.35,NE,48,0.0,0.0,46,0.00,,,0.00,WeatherDisplay:10.36,2013-03-14 03:24:00,
2013-03-13 22:29:00,30.9,13.0,30.35,NE,48,0.0,0.0,47,0.00,,,0.00,WeatherDisplay:10.36,2013-03-14 03:29:00,
2013-03-13 22:34:00,30.7,12.9,30.35,NE,49,0.0,0.0,47,0.00,,,0.00,WeatherDisplay:10.36,2013-03-14 03:34:00,
2013-03-13 22:39:00,30.6,12.7,30.35,NE,49,0.0,0.0,47,0.00,,,0.00,WeatherDisplay:10.36,2013-03-14 03:39:00,
2013-03-13 22:44:00,30.6,12.7,30.35,NE,49,0.0,0.0,47,0.00,,,0.00,WeatherDisplay:10.36,2013-03-14 03:44:00,
2013-03-13 22:49:00,30.4,13.0,30.35,NE,48,0.0,0.0,48,0.00,,,0.00,WeatherDisplay:10.36,2013-03-14 03:49:00,
2013-03-13 22:54:00,30.4,13.0,30.35,NE,48,0.0,0.0,48,0.00,,,0.00,WeatherDisplay:10.36,2013-03-14 03:54:00,
2013-03-13 22:59:00,30.4,13.0,30.35,NE,47,0.0,0.0,48,0.00,,,0.00,WeatherDisplay:10.36,2013-03-14 03:59:00,
2013-03-13 23:00:00,30.4,13.0,30.35,NE,48,0.0,0.0,48,0.00,,,0.00,WeatherDisplay:10.36,2013-03-14 04:00:00,
2013-03-13 23:04:00,30.2,12.8,30.35,NE,48,0.0,0.0,48,0.00,,,0.00,WeatherDisplay:10.36,2013-03-14 04:04:00,
2013-03-13 23:08:00,30.2,12.8,30.35,NE,47,0.0,0.0,48,0.00,,,0.00,WeatherDisplay:10.36,2013-03-14 04:08:00,
2013-03-13 23:13:00,30.0,12.7,30.35,NE,48,0.0,0.0,48,0.00,,,0.00,WeatherDisplay:10.36,2013-03-14 04:13:00,
2013-03-13 23:18:00,30.0,12.7,30.35,NE,47,0.0,0.0,48,0.00,,,0.00,WeatherDisplay:10.36,2013-03-14 04:18:00,
2013-03-13 23:23:00,30.0,13.1,30.35,NE,47,0.0,0.0,49,0.00,,,0.00,WeatherDisplay:10.36,2013-03-14 04:23:00,
2013-03-13 23:28:00,29.8,13.0,30.35,NE,47,0.0,0.0,49,0.00,,,0.00,WeatherDisplay:10.36,2013-03-14 04:28:00,
2013-03-13 23:31:00,29.8,13.0,30.35,NE,47,0.0,0.0,49,0.00,,,0.00,WeatherDisplay:10.36,2013-03-14 04:31:00,
2013-03-13 23:37:00,29.8,13.0,30.35,NE,47,0.0,0.0,49,0.00,,,0.00,WeatherDisplay:10.36,2013-03-14 04:37:00,
2013-03-13 23:43:00,29.7,12.8,30.35,NE,48,0.0,0.0,49,0.00,,,0.00,WeatherDisplay:10.36,2013-03-14 04:43:00,
2013-03-13 23:48:00,29.7,13.3,30.35,NE,47,0.0,0.0,50,0.00,,,0.00,WeatherDisplay:10.36,2013-03-14 04:48:00,
2013-03-13 23:53:00,29.7,13.3,30.35,NE,48,0.0,0.0,50,0.00,,,0.00,WeatherDisplay:10.36,2013-03-14 04:53:00,
2013-03-13 23:58:00,29.7,13.3,30.35,NE,48,0.0,0.0,50,0.00,,,0.00,WeatherDisplay:10.36,2013-03-14 04:58:00,